When you browse on this site, cookies collect data to enhance your experience and personalize the content and advertising you see.
Visit our Privacy Policy to learn more. By continuing to use the site, you agree to this use of cookies and data.
  • In Czech Republic
  • List of Countries
  • For 7 days
  • Water Temperature
  • Satellite Maps
  • Weather Map
  • Weather Widgets
  • user-avatar
    Login

    Hourly Weather Dawson

    Today, 26 April, Friday

    Time Temperature Precipitation Wind Pressure Humidity
    00:00 -7°C° 0 mm 1 mps 693 mmHg 74%
    01:00 -7°C° 0 mm 1 mps 693 mmHg 73%
    02:00 -7°C° 0 mm 1 mps 693 mmHg 72%
    03:00 -8°C° 0 mm 1 mps 693 mmHg 72%
    04:00 -7°C° 0 mm 1 mps 694 mmHg 68%
    05:00 -6°C° 0 mm 1 mps 694 mmHg 65%
    06:00 -6°C° 0 mm 0 mps 694 mmHg 61%
    07:00 -4°C° 0 mm 0 mps 694 mmHg 55%
    08:00 -1°C° 0 mm 1 mps 695 mmHg 49%
    09:00 +1°C° 0 mm 1 mps 695 mmHg 42%
    10:00 +2°C° 0 mm 1 mps 695 mmHg 39%
    11:00 +2°C° 0 mm 1 mps 695 mmHg 36%
    12:00 +3°C° 0 mm 1 mps 695 mmHg 32%
    13:00 +4°C° 0 mm 1 mps 695 mmHg 32%
    14:00 +4°C° 0 mm 1 mps 695 mmHg 31%
    15:00 +3°C° 0 mm 2 mps 695 mmHg 31%
    16:00 +2°C° 0 mm 2 mps 695 mmHg 33%
    17:00 +2°C° 0 mm 2 mps 696 mmHg 35%
    18:00 +1°C° 0 mm 2 mps 696 mmHg 37%
    19:00 -1°C° 0 mm 2 mps 696 mmHg 45%
    20:00 -1°C° 0 mm 1 mps 696 mmHg 52%
    21:00 -3°C° 0 mm 1 mps 696 mmHg 60%
    22:00 -4°C° 0 mm 1 mps 696 mmHg 60%
    23:00 -4°C° 0 mm 1 mps 697 mmHg 60%

    Tomorrow, 27 April, Saturday

    Time Temperature Precipitation Wind Pressure Humidity
    00:00 -6°C° 0 mm 1 mps 697 mmHg 59%
    01:00 -6°C° 0 mm 1 mps 697 mmHg 59%
    02:00 -6°C° 0 mm 0 mps 697 mmHg 59%
    03:00 -6°C° 0 mm 0 mps 697 mmHg 59%
    04:00 -6°C° 0 mm 0 mps 698 mmHg 57%
    05:00 -5°C° 0 mm 0 mps 698 mmHg 55%
    06:00 -4°C° 0 mm 0 mps 698 mmHg 52%
    07:00 -3°C° 0 mm 0 mps 699 mmHg 49%
    08:00 -1°C° 0 mm 0 mps 699 mmHg 45%
    09:00 +1°C° 0 mm 0 mps 699 mmHg 41%
    10:00 +2°C° 0 mm 0 mps 699 mmHg 40%
    11:00 +4°C° 0 mm 1 mps 699 mmHg 38%
    12:00 +5°C° 0 mm 1 mps 699 mmHg 36%
    13:00 +5°C° 0 mm 1 mps 699 mmHg 36%
    14:00 +6°C° 0 mm 1 mps 698 mmHg 35%
    15:00 +6°C° 0 mm 1 mps 698 mmHg 34%
    16:00 +5°C° 0 mm 1 mps 698 mmHg 36%
    17:00 +5°C° 0 mm 1 mps 698 mmHg 37%
    18:00 +5°C° 0 mm 1 mps 698 mmHg 39%
    19:00 +3°C° 0 mm 1 mps 698 mmHg 45%
    20:00 +1°C° 0 mm 1 mps 698 mmHg 52%
    21:00 -1°C° 0 mm 1 mps 698 mmHg 58%
    22:00 -1°C° 0 mm 1 mps 698 mmHg 60%
    23:00 -2°C° 0 mm 1 mps 698 mmHg 63%

    Day after tomorrow, 28 April, Sunday

    Time Temperature Precipitation Wind Pressure Humidity
    00:00 -3°C° 0 mm 0 mps 698 mmHg 65%
    01:00 -4°C° 0 mm 0 mps 698 mmHg 65%
    02:00 -4°C° 0 mm 0 mps 698 mmHg 66%
    03:00 -4°C° 0 mm 0 mps 698 mmHg 66%
    04:00 -3°C° 0 mm 0 mps 699 mmHg 63%
    05:00 -3°C° 0 mm 0 mps 699 mmHg 60%
    06:00 -2°C° 0 mm 0 mps 699 mmHg 57%
    07:00 0°C° 0 mm 0 mps 699 mmHg 51%
    08:00 +2°C° 0 mm 0 mps 700 mmHg 45%
    09:00 +4°C° 0 mm 0 mps 700 mmHg 39%
    10:00 +5°C° 0 mm 0 mps 700 mmHg 37%
    11:00 +7°C° 0 mm 1 mps 700 mmHg 35%
    12:00 +7°C° 0 mm 1 mps 700 mmHg 33%
    13:00 +8°C° 0 mm 1 mps 700 mmHg 32%
    14:00 +8°C° 0 mm 1 mps 699 mmHg 31%
    15:00 +8°C° 0 mm 1 mps 699 mmHg 30%
    16:00 +8°C° 0 mm 1 mps 699 mmHg 31%
    17:00 +8°C° 0 mm 1 mps 699 mmHg 32%
    18:00 +7°C° 0 mm 1 mps 699 mmHg 33%
    19:00 +5°C° 0 mm 1 mps 699 mmHg 38%
    20:00 +4°C° 0 mm 1 mps 698 mmHg 44%
    21:00 +2°C° 0 mm 1 mps 698 mmHg 50%
    22:00 +1°C° 0 mm 1 mps 698 mmHg 53%
    23:00 0°C° 0 mm 1 mps 698 mmHg 55%

    29 April, Monday

    Time Temperature Precipitation Wind Pressure Humidity
    00:00 0°C° 0 mm 1 mps 698 mmHg 58%
    01:00 -1°C° 0 mm 1 mps 698 mmHg 59%
    02:00 -1°C° 0 mm 1 mps 698 mmHg 60%
    03:00 -2°C° 0 mm 1 mps 698 mmHg 61%
    04:00 -1°C° 0 mm 1 mps 699 mmHg 58%
    05:00 0°C° 0 mm 1 mps 699 mmHg 55%
    06:00 0°C° 0 mm 0 mps 699 mmHg 52%
    07:00 +2°C° 0 mm 0 mps 699 mmHg 46%
    08:00 +4°C° 0 mm 0 mps 699 mmHg 40%
    09:00 +6°C° 0 mm 0 mps 699 mmHg 35%
    10:00 +8°C° 0 mm 0 mps 699 mmHg 31%
    11:00 +9°C° 0 mm 0 mps 699 mmHg 28%
    12:00 +11°C° 0 mm 0 mps 699 mmHg 25%
    13:00 +11°C° 0 mm 0 mps 699 mmHg 24%
    14:00 +11°C° 0 mm 0 mps 699 mmHg 23%
    15:00 +12°C° 0 mm 1 mps 698 mmHg 22%
    16:00 +11°C° 0 mm 1 mps 698 mmHg 23%
    17:00 +11°C° 0 mm 1 mps 698 mmHg 24%
    18:00 +10°C° 0 mm 1 mps 698 mmHg 25%
    19:00 +8°C° 0 mm 1 mps 698 mmHg 31%
    20:00 +6°C° 0 mm 1 mps 697 mmHg 37%
    21:00 +4°C° 0 mm 1 mps 697 mmHg 44%
    22:00 +3°C° 0 mm 1 mps 697 mmHg 46%
    23:00 +2°C° 0 mm 1 mps 697 mmHg 48%

    30 April, Tuesday

    Time Temperature Precipitation Wind Pressure Humidity
    00:00 +2°C° 0 mm 1 mps 697 mmHg 50%
    01:00 +1°C° 0 mm 1 mps 697 mmHg 51%
    02:00 +1°C° 0 mm 1 mps 697 mmHg 51%
    03:00 0°C° 0 mm 1 mps 697 mmHg 52%
    04:00 +1°C° 0 mm 1 mps 697 mmHg 50%
    05:00 +1°C° 0 mm 0 mps 697 mmHg 48%
    06:00 +1°C° 0 mm 0 mps 697 mmHg 45%
    07:00 +4°C° 0 mm 1 mps 697 mmHg 40%
    08:00 +6°C° 0 mm 1 mps 697 mmHg 35%
    09:00 +8°C° 0 mm 1 mps 697 mmHg 30%
    10:00 +8°C° 0 mm 2 mps 697 mmHg 28%
    11:00 +9°C° 0 mm 2 mps 696 mmHg 25%
    12:00 +9°C° 0 mm 2 mps 696 mmHg 22%
    13:00 +9°C° 0 mm 2 mps 696 mmHg 22%
    14:00 +9°C° 0 mm 3 mps 696 mmHg 21%
    15:00 +9°C° 0 mm 3 mps 695 mmHg 21%
    16:00 +8°C° 0 mm 3 mps 695 mmHg 24%
    17:00 +7°C° 0 mm 3 mps 695 mmHg 28%
    18:00 +7°C° 0 mm 3 mps 695 mmHg 31%
    19:00 +4°C° 0 mm 3 mps 695 mmHg 40%
    20:00 +3°C° 0 mm 2 mps 695 mmHg 49%
    21:00 +1°C° 0 mm 2 mps 695 mmHg 58%
    22:00 -1°C° 0 mm 2 mps 695 mmHg 59%
    23:00 -2°C° 0 mm 2 mps 695 mmHg 61%

    1 May, Wednesday

    Time Temperature Precipitation Wind Pressure Humidity
    00:00 -3°C° 0 mm 2 mps 695 mmHg 62%
    01:00 -1°C° 0 mm 1 mps 695 mmHg 62%
    02:00 -2°C° 0 mm 1 mps 695 mmHg 62%
    03:00 -3°C° 0 mm 1 mps 695 mmHg 61%
    04:00 -2°C° 0 mm 1 mps 696 mmHg 57%
    05:00 -4°C° 0 mm 2 mps 696 mmHg 52%
    06:00 -3°C° 0 mm 2 mps 696 mmHg 48%
    07:00 -2°C° 0 mm 2 mps 696 mmHg 44%
    08:00 -1°C° 0 mm 2 mps 696 mmHg 39%
    09:00 +1°C° 0 mm 2 mps 696 mmHg 35%
    10:00 +1°C° 0 mm 3 mps 696 mmHg 33%
    11:00 +2°C° 0 mm 3 mps 696 mmHg 30%
    12:00 +2°C° 0 mm 3 mps 696 mmHg 28%
    13:00 +1°C° 0 mm 4 mps 696 mmHg 26%
    14:00 +1°C° 0 mm 4 mps 696 mmHg 25%
    15:00 +1°C° 0 mm 4 mps 696 mmHg 24%
    16:00 +1°C° 0 mm 4 mps 696 mmHg 26%
    17:00 0°C° 0 mm 4 mps 696 mmHg 28%
    18:00 -1°C° 0 mm 4 mps 696 mmHg 30%
    19:00 -1°C° 0 mm 3 mps 696 mmHg 36%
    20:00 -4°C° 0 mm 3 mps 696 mmHg 42%
    21:00 -4°C° 0 mm 2 mps 696 mmHg 48%
    22:00 -5°C° 0 mm 2 mps 696 mmHg 50%
    23:00 -6°C° 0 mm 2 mps 696 mmHg 51%
    Show more